TimeIST,TemperatureF,Dew PointF,Humidity,Sea Level PressureIn,VisibilityMPH,Wind Direction,Wind SpeedMPH,Gust SpeedMPH,PrecipitationIn,Events,Conditions,WindDirDegrees,DateUTC
12:00 AM,55.4,55.4,100,30.12,0.7,Variable,2.3,-,N/A,,Scattered Clouds,0,2014-01-25 18:30:00
1:00 AM,55.4,55.4,100,30.12,0.7,NNW,4.6,-,N/A,,Scattered Clouds,330,2014-01-25 19:30:00
2:00 AM,53.6,53.6,100,30.12,0.7,Variable,1.2,-,N/A,,Scattered Clouds,0,2014-01-25 20:30:00
2:30 AM,53,53,100,30.11,1,Calm,Calm,,,,Mist,,2014-01-25 21:00:00
3:00 AM,51.8,51.8,100,30.09,0.6,Calm,Calm,-,N/A,Fog,Shallow Fog,0,2014-01-25 21:30:00
4:00 AM,50.0,50.0,100,30.09,-9999.0,Calm,Calm,-,N/A,Fog,Shallow Fog,0,2014-01-25 22:30:00
5:00 AM,46.4,46.4,100,30.09,-9999.0,Variable,2.3,-,N/A,Fog,Shallow Fog,0,2014-01-25 23:30:00
5:30 AM,45,45,100,30.11,1,Calm,Calm,,,Fog,Patches of Fog,,2014-01-26 00:00:00
8:30 AM,47,47,99,30.17,1,Calm,Calm,,,Fog,Partial Fog,,2014-01-26 03:00:00
10:00 AM,62.6,48.2,59,30.18,1.6,Variable,1.2,-,N/A,,Haze,0,2014-01-26 04:30:00
11:00 AM,64.4,46.4,52,30.18,2.5,ESE,4.6,-,N/A,,Haze,110,2014-01-26 05:30:00
11:30 AM,66,45,36,30.14,2,SE,4.6,,,,Haze,140,2014-01-26 06:00:00
12:00 PM,66.2,46.4,49,30.15,2.5,South,4.6,-,N/A,,Haze,170,2014-01-26 06:30:00
1:00 PM,68.0,46.4,46,30.12,2.5,Variable,5.8,-,N/A,,Haze,0,2014-01-26 07:30:00
2:00 PM,69.8,44.6,40,30.09,2.5,Variable,4.6,-,N/A,,Haze,0,2014-01-26 08:30:00
2:30 PM,72,44,26,30.06,2,SW,4.6,,,,Haze,230,2014-01-26 09:00:00
3:00 PM,71.6,44.6,38,30.06,2.5,SSW,3.5,-,N/A,,Haze,210,2014-01-26 09:30:00
4:00 PM,71.6,44.6,38,30.06,2.5,South,4.6,-,N/A,,Haze,170,2014-01-26 10:30:00
5:00 PM,68.0,50.0,52,30.06,2.5,South,8.1,-,N/A,,Haze,190,2014-01-26 11:30:00
5:30 PM,67,52,49,30.05,2,SW,6.9,,,,Haze,230,2014-01-26 12:00:00
6:00 PM,64.4,51.8,64,30.09,2.5,SSW,5.8,-,N/A,,Haze,210,2014-01-26 12:30:00
8:00 PM,59.0,53.6,82,30.12,2.5,Calm,Calm,-,N/A,,Haze,0,2014-01-26 14:30:00
8:30 PM,58,54,82,30.12,1,,1.2,,,,Mist,,2014-01-26 15:00:00
8:30 PM,59.0,53.6,82,30.15,2.2,Variable,1.2,-,N/A,,Mist,0,2014-01-26 15:00:00
10:00 PM,55.4,53.6,94,30.15,1.9,Calm,Calm,-,N/A,,Mist,0,2014-01-26 16:30:00
11:00 PM,57.2,55.4,94,30.15,1.9,Variable,3.5,-,N/A,,Mist,0,2014-01-26 17:30:00
11:30 PM,55,53,92,30.14,1,Calm,Calm,,,,Mist,,2014-01-26 18:00:00
11:30 PM,55.4,55.4,100,30.15,1.9,Variable,1.2,-,N/A,,Mist,0,2014-01-26 18:00:00